• In Deutschland
  • Länderverzeichnis
  • Für 7 Tage
  • Wassertemperatur
  • Satellitenkarten
  • Wetterkarte
  • Widgets
  • user-avatar
    Anmelden

    Stündliche Wetter Graz

    Heute, 18 August, Samstag

    Zeit Temperatur Niederschläge Wind Luftdruck Luftfeuchtigkeit
    00:00 +19°C° 0 mm 1 m/S 725 mmHg 81%
    01:00 +19°C° 0 mm 1 m/S 725 mmHg 82%
    02:00 +19°C° 0 mm 1 m/S 725 mmHg 82%
    03:00 +19°C° 0 mm 1 m/S 725 mmHg 83%
    04:00 +19°C° 0 mm 1 m/S 726 mmHg 84%
    05:00 +20°C° 0 mm 1 m/S 726 mmHg 81%
    06:00 +21°C° 0 mm 1 m/S 726 mmHg 78%
    07:00 +23°C° 0 mm 1 m/S 726 mmHg 73%
    08:00 +25°C° 0,1 mm 1 m/S 727 mmHg 65%
    09:00 +27°C° 0,1 mm 1 m/S 727 mmHg 57%
    10:00 +29°C° 0,1 mm 1 m/S 727 mmHg 49%
    11:00 +29°C° 0,1 mm 1 m/S 727 mmHg 46%
    12:00 +30°C° 0,1 mm 1 m/S 727 mmHg 44%
    13:00 +31°C° 0,1 mm 2 m/S 727 mmHg 41%
    14:00 +30°C° 0,1 mm 1 m/S 727 mmHg 43%
    15:00 +30°C° 0,1 mm 1 m/S 727 mmHg 46%
    16:00 +29°C° 0,1 mm 1 m/S 726 mmHg 48%
    17:00 +27°C° 0,1 mm 1 m/S 726 mmHg 54%
    18:00 +25°C° 0,1 mm 1 m/S 726 mmHg 60%
    19:00 +21°C° 0,1 mm 0 m/S 726 mmHg 66%
    20:00 +23°C° 0 mm 1 m/S 727 mmHg 68%
    21:00 +22°C° 0 mm 1 m/S 727 mmHg 69%
    22:00 +21°C° 0 mm 1 m/S 727 mmHg 70%
    23:00 +21°C° 0 mm 1 m/S 727 mmHg 71%

    Morgen, 19 August, Sonntag

    Zeit Temperatur Niederschläge Wind Luftdruck Luftfeuchtigkeit
    00:00 +20°C° 0 mm 1 m/S 727 mmHg 72%
    01:00 +20°C° 0 mm 1 m/S 727 mmHg 73%
    02:00 +20°C° 0 mm 1 m/S 727 mmHg 73%
    03:00 +20°C° 0 mm 1 m/S 727 mmHg 73%
    04:00 +19°C° 0 mm 1 m/S 727 mmHg 73%
    05:00 +20°C° 0 mm 1 m/S 727 mmHg 71%
    06:00 +22°C° 0 mm 1 m/S 728 mmHg 70%
    07:00 +23°C° 0 mm 1 m/S 728 mmHg 68%
    08:00 +25°C° 0 mm 1 m/S 728 mmHg 60%
    09:00 +27°C° 0 mm 1 m/S 728 mmHg 52%
    10:00 +29°C° 0 mm 1 m/S 729 mmHg 43%
    11:00 +30°C° 0 mm 1 m/S 728 mmHg 43%
    12:00 +30°C° 0 mm 1 m/S 728 mmHg 42%
    13:00 +30°C° 0 mm 2 m/S 728 mmHg 41%
    14:00 +30°C° 0 mm 1 m/S 727 mmHg 41%
    15:00 +30°C° 0 mm 1 m/S 727 mmHg 42%
    16:00 +30°C° 0 mm 1 m/S 727 mmHg 43%
    17:00 +28°C° 0 mm 1 m/S 727 mmHg 50%
    18:00 +26°C° 0 mm 1 m/S 726 mmHg 56%
    19:00 +22°C° 0 mm 0 m/S 726 mmHg 63%
    20:00 +23°C° 0 mm 1 m/S 726 mmHg 64%
    21:00 +22°C° 0 mm 1 m/S 727 mmHg 65%
    22:00 +21°C° 0 mm 1 m/S 727 mmHg 66%
    23:00 +21°C° 0 mm 1 m/S 727 mmHg 67%

    übermorgen, 20 August, Montag

    Zeit Temperatur Niederschläge Wind Luftdruck Luftfeuchtigkeit
    00:00 +20°C° 0 mm 1 m/S 726 mmHg 68%
    01:00 +20°C° 0 mm 1 m/S 726 mmHg 69%
    02:00 +20°C° 0 mm 1 m/S 726 mmHg 69%
    03:00 +20°C° 0 mm 1 m/S 726 mmHg 69%
    04:00 +19°C° 0 mm 1 m/S 726 mmHg 69%
    05:00 +20°C° 0 mm 1 m/S 726 mmHg 67%
    06:00 +21°C° 0 mm 1 m/S 726 mmHg 66%
    07:00 +23°C° 0 mm 1 m/S 727 mmHg 65%
    08:00 +25°C° 0 mm 1 m/S 727 mmHg 57%
    09:00 +28°C° 0 mm 1 m/S 727 mmHg 49%
    10:00 +28°C° 0 mm 0 m/S 727 mmHg 42%
    11:00 +31°C° 0 mm 1 m/S 727 mmHg 40%
    12:00 +32°C° 0 mm 1 m/S 727 mmHg 39%
    13:00 +32°C° 0 mm 1 m/S 726 mmHg 37%
    14:00 +32°C° 0,1 mm 1 m/S 726 mmHg 40%
    15:00 +31°C° 0,1 mm 1 m/S 726 mmHg 43%
    16:00 +30°C° 0,1 mm 1 m/S 725 mmHg 45%
    17:00 +28°C° 0,1 mm 1 m/S 725 mmHg 52%
    18:00 +26°C° 0,1 mm 1 m/S 725 mmHg 58%
    19:00 +24°C° 0,1 mm 1 m/S 725 mmHg 64%
    20:00 +23°C° 0 mm 1 m/S 725 mmHg 67%
    21:00 +22°C° 0 mm 1 m/S 726 mmHg 70%
    22:00 +22°C° 0 mm 1 m/S 726 mmHg 73%
    23:00 +21°C° 0 mm 1 m/S 726 mmHg 75%

    21 August, Dienstag

    Zeit Temperatur Niederschläge Wind Luftdruck Luftfeuchtigkeit
    00:00 +21°C° 0 mm 1 m/S 726 mmHg 77%
    01:00 +20°C° 0 mm 1 m/S 726 mmHg 79%
    02:00 +20°C° 0 mm 1 m/S 726 mmHg 81%
    03:00 +20°C° 0 mm 1 m/S 726 mmHg 82%
    04:00 +20°C° 0 mm 1 m/S 726 mmHg 84%
    05:00 +20°C° 0 mm 1 m/S 727 mmHg 82%
    06:00 +21°C° 0 mm 1 m/S 727 mmHg 80%
    07:00 +22°C° 0 mm 1 m/S 727 mmHg 78%
    08:00 +24°C° 0,2 mm 1 m/S 727 mmHg 71%
    09:00 +26°C° 0,2 mm 1 m/S 728 mmHg 63%
    10:00 +29°C° 0,2 mm 1 m/S 728 mmHg 56%
    11:00 +29°C° 0,5 mm 1 m/S 727 mmHg 54%
    12:00 +30°C° 0,5 mm 1 m/S 727 mmHg 53%
    13:00 +30°C° 0,5 mm 1 m/S 727 mmHg 52%
    14:00 +30°C° 0,4 mm 1 m/S 727 mmHg 53%
    15:00 +29°C° 0,4 mm 1 m/S 727 mmHg 55%
    16:00 +29°C° 0,4 mm 1 m/S 727 mmHg 56%
    17:00 +27°C° 0,4 mm 1 m/S 727 mmHg 63%
    18:00 +25°C° 0,4 mm 1 m/S 727 mmHg 69%
    19:00 +23°C° 0,4 mm 1 m/S 726 mmHg 76%
    20:00 +23°C° 0,2 mm 1 m/S 727 mmHg 78%
    21:00 +22°C° 0,2 mm 1 m/S 727 mmHg 81%
    22:00 +21°C° 0,2 mm 1 m/S 728 mmHg 83%
    23:00 +21°C° 0,1 mm 1 m/S 728 mmHg 85%

    22 August, Mittwoch

    Zeit Temperatur Niederschläge Wind Luftdruck Luftfeuchtigkeit
    00:00 +20°C° 0,1 mm 1 m/S 728 mmHg 86%
    01:00 +20°C° 0,1 mm 1 m/S 728 mmHg 87%
    02:00 +19°C° 0 mm 1 m/S 728 mmHg 88%
    03:00 +19°C° 0 mm 1 m/S 728 mmHg 89%
    04:00 +19°C° 0 mm 1 m/S 727 mmHg 90%
    05:00 +18°C° 0 mm 0 m/S 728 mmHg 87%
    06:00 +19°C° 0 mm 0 m/S 728 mmHg 85%
    07:00 +20°C° 0 mm 0 m/S 728 mmHg 82%
    08:00 +24°C° 0 mm 1 m/S 728 mmHg 74%
    09:00 +26°C° 0 mm 1 m/S 728 mmHg 65%
    10:00 +28°C° 0 mm 1 m/S 728 mmHg 56%
    11:00 +29°C° 0,1 mm 1 m/S 728 mmHg 55%
    12:00 +29°C° 0,1 mm 1 m/S 727 mmHg 53%
    13:00 +30°C° 0,1 mm 1 m/S 727 mmHg 52%
    14:00 +30°C° 0,2 mm 1 m/S 727 mmHg 53%
    15:00 +29°C° 0,2 mm 1 m/S 726 mmHg 54%
    16:00 +29°C° 0,2 mm 1 m/S 726 mmHg 55%
    17:00 +27°C° 0,1 mm 1 m/S 726 mmHg 62%
    18:00 +25°C° 0,1 mm 1 m/S 726 mmHg 68%
    19:00 +22°C° 0,1 mm 0 m/S 726 mmHg 74%
    20:00 +23°C° 0 mm 1 m/S 726 mmHg 76%
    21:00 +22°C° 0 mm 1 m/S 726 mmHg 77%
    22:00 +22°C° 0 mm 1 m/S 726 mmHg 79%
    23:00 +21°C° 0 mm 1 m/S 726 mmHg 80%

    23 August, Donnerstag

    Zeit Temperatur Niederschläge Wind Luftdruck Luftfeuchtigkeit
    00:00 +21°C° 0 mm 1 m/S 726 mmHg 81%
    01:00 +20°C° 0 mm 1 m/S 726 mmHg 82%
    02:00 +20°C° 0 mm 1 m/S 725 mmHg 83%
    03:00 +20°C° 0 mm 1 m/S 725 mmHg 84%
    04:00 +19°C° 0 mm 1 m/S 725 mmHg 85%
    05:00 +20°C° 0 mm 1 m/S 725 mmHg 82%
    06:00 +22°C° 0 mm 1 m/S 725 mmHg 79%
    07:00 +21°C° 0 mm 0 m/S 725 mmHg 77%
    08:00 +25°C° 0 mm 1 m/S 725 mmHg 68%
    09:00 +27°C° 0 mm 1 m/S 725 mmHg 59%
    10:00 +30°C° 0 mm 1 m/S 725 mmHg 51%
    11:00 +30°C° 0,2 mm 1 m/S 725 mmHg 50%
    12:00 +30°C° 0,2 mm 2 m/S 724 mmHg 48%
    13:00 +31°C° 0,2 mm 2 m/S 724 mmHg 47%
    14:00 +31°C° 0,4 mm 2 m/S 723 mmHg 49%
    15:00 +30°C° 0,4 mm 2 m/S 723 mmHg 50%
    16:00 +30°C° 0,4 mm 2 m/S 723 mmHg 52%
    17:00 +28°C° 0,2 mm 1 m/S 723 mmHg 58%
    18:00 +26°C° 0,2 mm 1 m/S 722 mmHg 65%
    19:00 +22°C° 0,2 mm 0 m/S 722 mmHg 71%
    20:00 +21°C° 0,1 mm 0 m/S 722 mmHg 73%
    21:00 +20°C° 0,1 mm 0 m/S 722 mmHg 75%
    22:00 +20°C° 0,1 mm 0 m/S 722 mmHg 76%
    23:00 +21°C° 0,1 mm 1 m/S 722 mmHg 78%
    Mehr zeigen